| time (UTC) | temp F | wind direction | speed knots | gust knots | rain 1hr in | rain 24hr in | rain mn in | humidity % | barometer mb |
| 20260505004714 | 81 | 318 | 3.5 | 8.7 | 0.00 | 0.00 | 0.00 | 34 | 1007.9 |
| 20260505004214 | 80 | 315 | 2.6 | 7.0 | 0.00 | 0.00 | 0.00 | 35 | 1008.0 |
| 20260505003714 | 80 | 316 | 3.5 | 7.0 | 0.00 | 0.00 | 0.00 | 39 | 1008.0 |
| 20260505003210 | 80 | 349 | 3.5 | 7.0 | 0.00 | 0.00 | 0.00 | 38 | 1008.0 |
| 20260505002938 | 80 | 311 | 2.6 | 4.3 | 0.00 | 0.00 | 0.00 | 40 | 1008.0 |
| 20260505002210 | 79 | 359 | 3.5 | 5.2 | 0.00 | 0.00 | 0.00 | 41 | 1008.0 |
| 20260505001710 | 79 | 316 | 3.5 | 5.2 | 0.00 | 0.00 | 0.00 | 41 | 1008.1 |
| 20260505001209 | 81 | 309 | 3.5 | 5.2 | 0.00 | 0.00 | 0.00 | 41 | 1008.2 |
| 20260505000715 | 80 | 309 | 3.5 | 6.1 | 0.00 | 0.00 | 0.00 | 42 | 1008.1 |
| 20260504235713 | 81 | 309 | 2.6 | 7.0 | 0.00 | 0.00 | 0.00 | 41 | 1008.2 |
| 20260504235210 | 82 | 316 | 2.6 | 6.1 | 0.00 | 0.00 | 0.00 | 38 | 1008.2 |
| 20260504234936 | 81 | 72 | 2.6 | 5.2 | 0.00 | 0.00 | 0.00 | 40 | 1008.2 |
| 20260504234210 | 82 | 334 | 2.6 | 4.3 | 0.00 | 0.00 | 0.00 | 36 | 1008.3 |
| 20260504233710 | 82 | 315 | 3.5 | 5.2 | 0.00 | 0.00 | 0.00 | 38 | 1008.3 |
| 20260504233434 | 82 | 314 | 3.5 | 6.1 | 0.00 | 0.00 | 0.00 | 39 | 1008.2 |
| 20260504232708 | 81 | 325 | 3.5 | 6.1 | 0.00 | 0.00 | 0.00 | 39 | 1008.3 |
| 20260504232435 | 81 | 319 | 3.5 | 5.2 | 0.00 | 0.00 | 0.00 | 40 | 1008.3 |
| 20260504231707 | 82 | 300 | 3.5 | 5.2 | 0.00 | 0.00 | 0.00 | 41 | 1008.3 |
| 20260504231205 | 81 | 326 | 2.6 | 4.3 | 0.00 | 0.00 | 0.00 | 42 | 1008.3 |
| 20260504230926 | 81 | 328 | 2.6 | 4.3 | 0.00 | 0.00 | 0.00 | 42 | 1008.4 |
| 20260504230432 | 80 | 320 | 1.7 | 4.3 | 0.00 | 0.00 | 0.00 | 42 | 1008.4 |
| 20260504225934 | 80 | 309 | 1.7 | 4.3 | 0.00 | 0.00 | 0.00 | 43 | 1008.6 |
| 20260504225202 | 78 | 273 | 2.6 | 4.3 | 0.00 | 0.00 | 0.00 | 43 | 1008.8 |
| 20260504224708 | 80 | 318 | 2.6 | 4.3 | 0.00 | 0.00 | 0.00 | 43 | 1008.9 |
| 20260504224431 | 79 | 342 | 1.7 | 4.3 | 0.00 | 0.00 | 0.00 | 45 | 1008.9 |
| 20260504223924 | 79 | 325 | 1.7 | 4.3 | 0.00 | 0.00 | 0.00 | 43 | 1008.9 |
| 20260504223155 | 78 | 309 | 2.6 | 6.1 | 0.00 | 0.00 | 0.00 | 43 | 1008.9 |
| 20260504222916 | 77 | 302 | 1.7 | 6.1 | 0.00 | 0.00 | 0.00 | 45 | 1008.9 |
| 20260504222153 | 77 | 308 | 1.7 | 5.2 | 0.00 | 0.00 | 0.00 | 45 | 1009.0 |
| 20260504221652 | 77 | 285 | 2.6 | 6.1 | 0.00 | 0.00 | 0.00 | 45 | 1009.0 |
| 20260504221141 | 75 | 273 | 2.6 | 7.0 | 0.00 | 0.00 | 0.00 | 44 | 1009.0 |
| 20260504220639 | 76 | 232 | 2.6 | 7.0 | 0.00 | 0.00 | 0.00 | 44 | 1008.9 |
| 20260504220139 | 76 | 274 | 2.6 | 5.2 | 0.00 | 0.00 | 0.00 | 41 | 1009.1 |
| 20260504215637 | 77 | 266 | 2.6 | 4.3 | 0.00 | 0.00 | 0.00 | 41 | 1009.1 |
| 20260504215138 | 77 | 241 | 2.6 | 4.3 | 0.00 | 0.00 | 0.00 | 43 | 1009.1 |
| 20260504214638 | 76 | 259 | 2.6 | 5.2 | 0.00 | 0.00 | 0.00 | 42 | 1009.1 |
| 20260504214138 | 76 | 169 | 2.6 | 7.0 | 0.00 | 0.00 | 0.00 | 44 | 1009.0 |
| 20260504213900 | 75 | 259 | 2.6 | 7.0 | 0.00 | 0.00 | 0.00 | 44 | 1009.1 |
| 20260504213134 | 76 | 274 | 2.6 | 4.3 | 0.00 | 0.00 | 0.00 | 42 | 1009.2 |
| 20260504212630 | 76 | 299 | 2.6 | 4.3 | 0.00 | 0.00 | 0.00 | 41 | 1009.3 |
| 20260504212129 | 75 | 285 | 2.6 | 4.3 | 0.00 | 0.00 | 0.00 | 47 | 1009.3 |
| 20260504211629 | 74 | 280 | 2.6 | 6.1 | 0.00 | 0.00 | 0.00 | 46 | 1009.3 |
| 20260504211129 | 74 | 285 | 3.5 | 7.0 | 0.00 | 0.00 | 0.00 | 43 | 1009.3 |
| 20260504210630 | 75 | 312 | 3.5 | 7.0 | 0.00 | 0.00 | 0.00 | 46 | 1009.5 |
| 20260504210129 | 75 | 265 | 2.6 | 7.0 | 0.00 | 0.00 | 0.00 | 46 | 1009.5 |
| 20260504205631 | 75 | 285 | 2.6 | 7.0 | 0.00 | 0.00 | 0.00 | 44 | 1009.4 |
| 20260504205130 | 75 | 230 | 2.6 | 6.1 | 0.00 | 0.00 | 0.00 | 44 | 1009.5 |
| 20260504204623 | 74 | 319 | 2.6 | 4.3 | 0.00 | 0.00 | 0.00 | 46 | 1009.5 |
| 20260504204116 | 74 | 312 | 2.6 | 4.3 | 0.00 | 0.00 | 0.00 | 47 | 1009.6 |
| 20260504203610 | 74 | 306 | 2.6 | 4.3 | 0.00 | 0.00 | 0.00 | 48 | 1009.5 |
| 20260504203105 | 74 | 321 | 2.6 | 4.3 | 0.00 | 0.00 | 0.00 | 48 | 1009.6 |
| 20260504202605 | 75 | 315 | 2.6 | 4.3 | 0.00 | 0.00 | 0.00 | 46 | 1009.5 |
| 20260504202335 | 76 | 311 | 2.6 | 4.3 | 0.00 | 0.00 | 0.00 | 45 | 1009.5 |
| 20260504201605 | 75 | 314 | 2.6 | 4.3 | 0.00 | 0.00 | 0.00 | 47 | 1009.6 |
| 20260504201103 | 75 | 330 | 2.6 | 4.3 | 0.00 | 0.00 | 0.00 | 45 | 1009.7 |
| 20260504200604 | 75 | 314 | 3.5 | 4.3 | 0.00 | 0.00 | 0.00 | 48 | 1009.7 |
| 20260504200104 | 75 | 322 | 2.6 | 4.3 | 0.00 | 0.00 | 0.00 | 47 | 1009.7 |
| 20260504195602 | 75 | 308 | 2.6 | 4.3 | 0.00 | 0.00 | 0.00 | 46 | 1009.7 |
| 20260504195103 | 73 | 278 | 1.7 | 4.3 | 0.00 | 0.00 | 0.00 | 48 | 1009.6 |
| 20260504194104 | 74 | 333 | 2.6 | 4.3 | 0.00 | 0.00 | 0.00 | 48 | 1009.5 |
| 20260504193604 | 74 | 320 | 2.6 | 3.5 | 0.00 | 0.00 | 0.00 | 52 | 1009.6 |
| 20260504193325 | 73 | 307 | 1.7 | 3.5 | 0.00 | 0.00 | 0.00 | 49 | 1009.5 |
| 20260504192829 | 74 | 321 | 1.7 | 4.3 | 0.00 | 0.00 | 0.00 | 51 | 1009.5 |
| 20260504192101 | 73 | 305 | 1.7 | 4.3 | 0.00 | 0.00 | 0.00 | 52 | 1009.5 |
| 20260504191601 | 73 | 320 | 1.7 | 3.5 | 0.00 | 0.00 | 0.00 | 51 | 1009.6 |
| 20260504191101 | 72 | 316 | 1.7 | 3.5 | 0.00 | 0.00 | 0.00 | 53 | 1009.6 |
| 20260504190827 | 72 | 312 | 1.7 | 3.5 | 0.00 | 0.00 | 0.00 | 52 | 1009.7 |
| 20260504190059 | 72 | 314 | 1.7 | 3.5 | 0.00 | 0.00 | 0.00 | 50 | 1009.7 |
| 20260504185553 | 72 | 326 | 1.7 | 3.5 | 0.00 | 0.00 | 0.00 | 53 | 1009.8 |
| 20260504185047 | 71 | 321 | 1.7 | 3.5 | 0.00 | 0.00 | 0.00 | 53 | 1009.8 |
| 20260504184547 | 71 | 319 | 1.7 | 3.5 | 0.00 | 0.00 | 0.00 | 57 | 1009.7 |
| 20260504184044 | 70 | 322 | 1.7 | 3.5 | 0.00 | 0.00 | 0.00 | 57 | 1009.7 |
| 20260504183543 | 69 | 319 | 1.7 | 3.5 | 0.00 | 0.00 | 0.00 | 55 | 1009.6 |
| 20260504183044 | 70 | 332 | 1.7 | 3.5 | 0.00 | 0.00 | 0.00 | 55 | 1009.7 |
| 20260504182541 | 70 | 333 | 1.7 | 3.5 | 0.00 | 0.00 | 0.00 | 57 | 1009.7 |
| 20260504182041 | 69 | 318 | 1.7 | 3.5 | 0.00 | 0.00 | 0.00 | 58 | 1009.8 |
| 20260504181539 | 69 | 317 | 1.7 | 3.5 | 0.00 | 0.00 | 0.00 | 58 | 1009.7 |
| 20260504181039 | 70 | 309 | 1.7 | 2.6 | 0.00 | 0.00 | 0.00 | 57 | 1009.6 |
| 20260504180539 | 69 | 308 | 1.7 | 2.6 | 0.00 | 0.00 | 0.00 | 58 | 1009.6 |
| 20260504180039 | 69 | 295 | 1.7 | 2.6 | 0.00 | 0.00 | 0.00 | 58 | 1009.7 |
| 20260504175808 | 68 | 302 | 1.7 | 3.5 | 0.00 | 0.00 | 0.00 | 61 | 1009.7 |
| 20260504175038 | 68 | 306 | 1.7 | 3.5 | 0.00 | 0.00 | 0.00 | 60 | 1009.7 |
| 20260504174535 | 69 | 13 | 1.7 | 3.5 | 0.00 | 0.00 | 0.00 | 59 | 1009.6 |
| 20260504174035 | 68 | 18 | 1.7 | 3.5 | 0.00 | 0.00 | 0.00 | 62 | 1009.6 |
| 20260504173535 | 68 | 15 | 1.7 | 3.5 | 0.00 | 0.00 | 0.00 | 63 | 1009.7 |
| 20260504173032 | 68 | 10 | 1.7 | 3.5 | 0.00 | 0.00 | 0.00 | 62 | 1009.7 |
| 20260504172531 | 67 | 20 | 1.7 | 4.3 | 0.00 | 0.00 | 0.00 | 63 | 1009.7 |
| 20260504172031 | 67 | 355 | 2.6 | 5.2 | 0.00 | 0.00 | 0.00 | 62 | 1009.7 |
| 20260504171031 | 68 | 60 | 1.7 | 5.2 | 0.00 | 0.00 | 0.00 | 63 | 1009.7 |
| 20260504170257 | 68 | 99 | 1.7 | 6.1 | 0.00 | 0.00 | 0.00 | 62 | 1009.6 |
| 20260504151008 | 61 | 13 | 1.7 | 2.6 | 0.00 | 0.00 | 0.00 | 76 | 1009.6 |
| 20260504150506 | 60 | 11 | 1.7 | 3.5 | 0.00 | 0.00 | 0.00 | 76 | 1009.5 |
| 20260504141232 | 59 | 91 | 1.7 | 5.2 | 0.00 | 0.00 | 0.00 | 73 | 1009.0 |
| 20260504140502 | 59 | 103 | 1.7 | 3.5 | 0.00 | 0.00 | 0.00 | 75 | 1009.0 |
| 20260504130501 | 59 | 153 | 0.9 | 3.5 | 0.00 | 0.00 | 0.00 | 76 | 1008.9 |
| 20260504110653 | 62 | 89 | 0.0 | 1.7 | 0.00 | 0.00 | 0.00 | 62 | 1008.8 |
| 20260504081905 | 72 | 241 | 2.6 | 6.1 | 0.00 | 0.00 | 0.00 | 37 | 1008.6 |
| 20260504081403 | 72 | 175 | 2.6 | 6.1 | 0.00 | 0.00 | 0.00 | 36 | 1008.6 |
| 20260504080911 | 72 | 234 | 2.6 | 5.2 | 0.00 | 0.00 | 0.00 | 37 | 1008.6 |
| 20260504080416 | 72 | 237 | 2.6 | 6.1 | 0.00 | 0.00 | 0.00 | 37 | 1008.7 |
| 20260504080137 | 71 | 186 | 1.7 | 6.1 | 0.00 | 0.00 | 0.00 | 37 | 1008.7 |
| 20260504070336 | 72 | 157 | 1.7 | 4.3 | 0.00 | 0.00 | 0.00 | 33 | 1008.6 |
| 20260504050307 | 73 | 130 | 1.7 | 6.1 | 0.00 | 0.00 | 0.00 | 32 | 1008.6 |
| 20260504045804 | 73 | 139 | 0.9 | 4.3 | 0.00 | 0.00 | 0.00 | 31 | 1008.7 |
| 20260504044804 | 72 | 182 | 2.6 | 4.3 | 0.00 | 0.00 | 0.00 | 33 | 1008.7 |
| 20260504044304 | 71 | 171 | 2.6 | 4.3 | 0.00 | 0.00 | 0.00 | 35 | 1008.7 |
| 20260504043804 | 72 | 176 | 1.7 | 4.3 | 0.00 | 0.00 | 0.00 | 34 | 1008.7 |
| 20260504042801 | 72 | 161 | 1.7 | 5.2 | 0.00 | 0.00 | 0.00 | 32 | 1008.7 |
| 20260504042304 | 72 | 153 | 1.7 | 3.5 | 0.00 | 0.00 | 0.00 | 34 | 1008.8 |
| 20260504041802 | 72 | 132 | 0.9 | 3.5 | 0.00 | 0.00 | 0.00 | 33 | 1008.8 |
| 20260504041301 | 72 | 264 | 1.7 | 7.0 | 0.00 | 0.00 | 0.00 | 33 | 1008.7 |
| 20260504040800 | 72 | 348 | 2.6 | 7.0 | 0.00 | 0.00 | 0.00 | 34 | 1008.8 |
| 20260504040302 | 72 | 119 | 1.7 | 4.3 | 0.00 | 0.00 | 0.00 | 36 | 1008.7 |
| 20260504040032 | 72 | 139 | 1.7 | 5.2 | 0.00 | 0.00 | 0.00 | 34 | 1008.7 |
| 20260504035305 | 72 | 134 | 2.6 | 5.2 | 0.00 | 0.00 | 0.00 | 36 | 1008.7 |
| 20260504034801 | 71 | 112 | 2.6 | 4.3 | 0.00 | 0.00 | 0.00 | 37 | 1008.6 |
| 20260504034302 | 71 | 137 | 1.7 | 4.3 | 0.00 | 0.00 | 0.00 | 37 | 1008.7 |
| 20260504033801 | 72 | 138 | 1.7 | 3.5 | 0.00 | 0.00 | 0.00 | 35 | 1008.8 |
| 20260504033303 | 72 | 177 | 1.7 | 2.6 | 0.00 | 0.00 | 0.00 | 34 | 1008.8 |
| 20260504033030 | 72 | 63 | 0.9 | 2.6 | 0.00 | 0.00 | 0.00 | 35 | 1008.7 |
| 20260504032304 | 72 | 61 | 0.9 | 2.6 | 0.00 | 0.00 | 0.00 | 35 | 1008.7 |
| 20260504031802 | 72 | 55 | 0.9 | 2.6 | 0.00 | 0.00 | 0.00 | 36 | 1008.7 |
| 20260504031305 | 72 | 53 | 0.9 | 2.6 | 0.00 | 0.00 | 0.00 | 35 | 1008.7 |
| 20260504030805 | 74 | 52 | 0.0 | 1.7 | 0.00 | 0.00 | 0.00 | 34 | 1008.8 |
| 20260504030533 | 74 | 52 | 0.9 | 2.6 | 0.00 | 0.00 | 0.00 | 33 | 1008.7 |
| 20260504025800 | 74 | 48 | 1.7 | 3.5 | 0.00 | 0.00 | 0.00 | 32 | 1008.8 |
| 20260504025256 | 73 | 110 | 1.7 | 4.3 | 0.00 | 0.00 | 0.00 | 33 | 1008.7 |
| 20260504024750 | 74 | 112 | 2.6 | 4.3 | 0.00 | 0.00 | 0.00 | 33 | 1008.8 |
| 20260504024246 | 74 | 91 | 2.6 | 5.2 | 0.00 | 0.00 | 0.00 | 33 | 1008.8 |
| 20260504023744 | 73 | 91 | 1.7 | 5.2 | 0.00 | 0.00 | 0.00 | 35 | 1008.8 |
| 20260504023242 | 74 | 135 | 1.7 | 4.3 | 0.00 | 0.00 | 0.00 | 35 | 1009.0 |
| 20260504023011 | 74 | 41 | 1.7 | 4.3 | 0.00 | 0.00 | 0.00 | 33 | 1008.8 |
| 20260504022242 | 74 | 87 | 2.6 | 6.1 | 0.00 | 0.00 | 0.00 | 35 | 1008.9 |
| 20260504021742 | 74 | 41 | 2.6 | 6.1 | 0.00 | 0.00 | 0.00 | 34 | 1009.0 |
| 20260504021242 | 74 | 118 | 3.5 | 10.4 | 0.00 | 0.00 | 0.00 | 34 | 1009.0 |
| 20260504020742 | 75 | 49 | 3.5 | 10.4 | 0.00 | 0.00 | 0.00 | 35 | 1009.2 |
| 20260504020242 | 74 | 91 | 3.5 | 9.6 | 0.00 | 0.00 | 0.00 | 34 | 1009.2 |
| 20260504015742 | 74 | 51 | 2.6 | 9.6 | 0.00 | 0.00 | 0.00 | 39 | 1009.3 |
| 20260504015240 | 75 | 46 | 2.6 | 6.1 | 0.00 | 0.00 | 0.00 | 34 | 1009.4 |
| 20260504014741 | 74 | 80 | 2.6 | 6.1 | 0.00 | 0.00 | 0.00 | 33 | 1009.3 |
| 20260504014510 | 74 | 126 | 3.5 | 7.8 | 0.00 | 0.00 | 0.00 | 34 | 1009.3 |
| 20260504013740 | 74 | 93 | 3.5 | 7.8 | 0.00 | 0.00 | 0.00 | 37 | 1009.3 |
| 20260504013242 | 74 | 92 | 2.6 | 6.1 | 0.00 | 0.00 | 0.00 | 36 | 1009.4 |
| 20260504012739 | 75 | 61 | 2.6 | 7.0 | 0.00 | 0.00 | 0.00 | 36 | 1009.4 |
| 20260504012232 | 76 | 65 | 2.6 | 7.0 | 0.00 | 0.00 | 0.00 | 35 | 1009.4 |
| 20260504011732 | 76 | 84 | 2.6 | 7.0 | 0.00 | 0.00 | 0.00 | 34 | 1009.5 |
| 20260504011455 | 75 | 91 | 3.5 | 7.0 | 0.00 | 0.00 | 0.00 | 35 | 1009.5 |
| 20260504010730 | 75 | 71 | 3.5 | 7.8 | 0.00 | 0.00 | 0.00 | 37 | 1009.7 |
| 20260504010230 | 75 | 111 | 2.6 | 7.8 | 0.00 | 0.00 | 0.00 | 35 | 1009.7 |
| 20260504005730 | 76 | 43 | 2.6 | 6.1 | 0.00 | 0.00 | 0.00 | 36 | 1009.7 |
| 20260504005234 | 76 | 100 | 2.6 | 6.1 | 0.00 | 0.00 | 0.00 | 36 | 1009.7 |